Terminal Aerodrome Forecast
Issued by NWS Knoxville/Tri Cities, TN

Home | Current Version | Previous Version | Text Only | Print | Product List | Glossary On
Versions: 1 2 3 4 5 6 7 8 9 10 11 12 13 14 15 16 17 18 19 20 21 22 23 24
000
FTUS44 KMRX 012325
TAFTYS
TAF
KTYS 012325Z 0200/0224 05006KT P6SM SCT040 BKN120
     FM020200 VRB03KT P6SM SCT040 BKN120
     FM021500 04005KT P6SM SCT035 SCT150=

USA.gov is the U.S. government's official web portal to all federal, state and local government web resources and services.